TimeCDT,TemperatureF,Dew PointF,Humidity,Sea Level PressureIn,VisibilityMPH,Wind Direction,Wind SpeedMPH,Gust SpeedMPH,PrecipitationIn,Events,Conditions,WindDirDegrees,DateUTC
12:57 AM,39.0,37.0,93,30.26,10.0,NNE,3.5,-,N/A,,Clear,20,2012-10-06 05:57:00
1:57 AM,37.9,36.0,93,30.27,10.0,NNE,4.6,-,N/A,,Clear,30,2012-10-06 06:57:00
2:57 AM,37.9,35.1,89,30.27,10.0,North,4.6,-,N/A,,Clear,360,2012-10-06 07:57:00
3:57 AM,36.0,34.0,93,30.26,10.0,NNE,8.1,-,N/A,,Clear,20,2012-10-06 08:57:00
4:57 AM,37.0,34.0,89,30.27,10.0,NNE,8.1,-,N/A,,Clear,20,2012-10-06 09:57:00
5:57 AM,37.9,34.0,86,30.27,10.0,ENE,6.9,-,N/A,,Clear,60,2012-10-06 10:57:00
6:57 AM,37.9,34.0,86,30.28,10.0,East,5.8,-,N/A,,Scattered Clouds,80,2012-10-06 11:57:00
7:57 AM,39.9,34.0,79,30.27,10.0,East,8.1,-,0.00,,Mostly Cloudy,80,2012-10-06 12:57:00
8:57 AM,41.0,35.1,79,30.28,10.0,NE,8.1,-,0.00,Rain,Light Rain,40,2012-10-06 13:57:00
9:57 AM,42.1,35.1,76,30.32,10.0,North,5.8,-,0.00,Rain,Light Rain,360,2012-10-06 14:57:00
10:57 AM,42.1,35.1,76,30.33,10.0,North,4.6,-,0.00,Rain,Light Rain,10,2012-10-06 15:57:00
11:57 AM,44.1,36.0,73,30.31,10.0,North,5.8,-,0.01,,Overcast,10,2012-10-06 16:57:00
12:57 PM,45.0,35.1,68,30.31,10.0,North,3.5,-,0.00,,Overcast,10,2012-10-06 17:57:00
1:57 PM,46.9,33.1,59,30.28,10.0,North,11.5,-,N/A,,Overcast,10,2012-10-06 18:57:00
2:57 PM,45.0,36.0,71,30.26,10.0,North,8.1,-,0.00,Rain,Light Rain,10,2012-10-06 19:57:00
3:57 PM,44.1,37.0,76,30.25,10.0,NNE,6.9,-,0.00,,Overcast,20,2012-10-06 20:57:00
5:57 PM,43.0,39.0,86,30.26,10.0,North,5.8,-,0.02,Rain,Light Rain,360,2012-10-06 22:57:00
7:57 PM,39.9,36.0,86,30.30,10.0,Calm,Calm,-,N/A,,Overcast,0,2012-10-07 00:57:00
9:57 PM,39.9,37.0,89,30.32,10.0,Calm,Calm,-,N/A,,Overcast,0,2012-10-07 02:57:00
11:57 PM,39.9,37.0,89,30.31,10.0,Calm,Calm,-,N/A,,Overcast,0,2012-10-07 04:57:00